Weather History for KMTH - January, 2014

Change the Weather History Date:

Wednesday, January 1, 2014

  Actual Average Record
Temperature  
Mean Temperature 80 °F 70 °F  
Max Temperature 84 °F 75 °F 86 °F (2008)
Min Temperature 75 °F 64 °F 51 °F (2001)
Degree Days  
Heating Degree Days 0 1  
Month to date heating degree days 0 1  
Since 1 July heating degree days 1 22  
Cooling Degree Days 15 6  
Month to date cooling degree days 15 6  
Year to date cooling degree days 15 6  
Growing Degree Days 28 (Base 50)    
Moisture  
Dew Point 73 °F    
Average Humidity 84    
Maximum Humidity 94    
Minimum Humidity 74    
Precipitation  
Precipitation 0.01 in 0.06 in 0.03 in (2004)
Month to date precipitation 0.01 0.06  
Year to date precipitation 0.01 0.06  
Snow  
Snow 0.00 in - - ()
Month to date snowfall 0.0  
Since 1 July snowfall 0.0  
Snow Depth 0.00 in    
Sea Level Pressure  
Sea Level Pressure 30.09 in    
Wind  
Wind Speed 9 mph (ESE)    
Max Wind Speed 18 mph    
Max Gust Speed 24 mph    
Visibility 10 miles    
Events Rain    
T = Trace of Precipitation, MM = Missing Value Source: NWS Daily Summary

Daily Weather History Graph

Daily Weather History Graph

Search for Another Location

Airport or City:

Trip Planner

Search our weather history database for the weather conditions in past years. The results will help you decide how hot, cold, wet, or windy it might be!

Date:

Astronomy

Jan. 01, 2014 Rise Set
Actual Time 7:08 AM EST 5:47 PM EST
Civil Twilight 6:43 AM EST 6:11 PM EST
Nautical Twilight 6:15 AM EST 6:40 PM EST
Astronomical Twilight 5:47 AM EST 7:08 PM EST
Moon 7:04 AM EST (1/1) 6:22 PM EST (1/1)
Length of Visible Light 11h 28m
Length of Day
10h 38m
New Moon, 0% of the Moon is Illuminated
Jan 1
New Moon
Jan 7
First Quarter
Jan 15
Full
Jan 24
Last Quarter
Jan 30
New

Hourly Weather History & Observations

Time (EST) Temp. Heat Index Dew Point Humidity Pressure Visibility Wind Dir Wind Speed Gust Speed Precip Events Conditions
12:20 AM 75.0 °F - 72.0 °F 90% 30.15 in 10.0 mi ENE 16.1 mph - N/A   Overcast
12:53 AM 75.0 °F - 72.0 °F 90% 30.14 in 10.0 mi ENE 12.7 mph - N/A   Mostly Cloudy
1:50 AM 75.2 °F - 73.4 °F 94% 30.13 in 10.0 mi ENE 10.4 mph - N/A   Mostly Cloudy
1:53 AM 75.9 °F - 73.0 °F 91% 30.13 in 10.0 mi ENE 9.2 mph - N/A   Mostly Cloudy
2:45 AM 75.9 °F - 73.0 °F 91% 30.11 in 10.0 mi ENE 9.2 mph - 0.00 in   Overcast
2:53 AM 75.9 °F - 73.0 °F 91% 30.12 in 10.0 mi ENE 9.2 mph - 0.00 in   Overcast
3:53 AM 77.0 °F - 73.0 °F 88% 30.10 in 10.0 mi East 12.7 mph - N/A   Overcast
4:53 AM 75.9 °F - 73.0 °F 91% 30.10 in 10.0 mi East 9.2 mph - N/A   Scattered Clouds
5:07 AM 75.9 °F - 73.9 °F 94% 30.10 in 10.0 mi East 11.5 mph - 0.01 in Rain Light Rain
5:15 AM 75.9 °F - 73.9 °F 94% 30.10 in 10.0 mi East 11.5 mph - 0.01 in   Scattered Clouds
5:53 AM 77.0 °F - 73.0 °F 88% 30.10 in 10.0 mi East 8.1 mph 18.4 mph 0.01 in   Overcast
6:53 AM 77.0 °F - 73.0 °F 88% 30.11 in 10.0 mi ESE 10.4 mph 19.6 mph N/A   Mostly Cloudy
7:53 AM 77.0 °F - 73.0 °F 88% 30.13 in 10.0 mi East 6.9 mph 17.3 mph N/A   Partly Cloudy
8:53 AM 79.0 °F - 73.9 °F 84% 30.15 in 10.0 mi ESE 6.9 mph 18.4 mph N/A   Mostly Cloudy
9:53 AM 80.1 °F 84.2 °F 73.0 °F 79% 30.15 in 10.0 mi East 8.1 mph - N/A   Scattered Clouds
10:53 AM 82.0 °F 87.9 °F 73.9 °F 76% 30.15 in 10.0 mi ESE 9.2 mph - N/A   Partly Cloudy
11:53 AM 82.9 °F 89.4 °F 73.9 °F 74% 30.13 in 10.0 mi ESE 8.1 mph - N/A   Scattered Clouds
12:53 PM 82.9 °F 89.4 °F 73.9 °F 74% 30.10 in 10.0 mi ESE 10.4 mph 17.3 mph N/A   Scattered Clouds
1:53 PM 82.9 °F 89.4 °F 73.9 °F 74% 30.06 in 10.0 mi ESE 9.2 mph - N/A   Scattered Clouds
2:21 PM 82.9 °F 89.4 °F 73.9 °F 74% 30.06 in 10.0 mi ESE 11.5 mph - N/A   Mostly Cloudy
2:32 PM 82.9 °F 89.4 °F 73.9 °F 74% 30.06 in 10.0 mi ESE 9.2 mph 16.1 mph N/A   Mostly Cloudy
2:53 PM 82.9 °F 89.4 °F 73.9 °F 74% 30.05 in 10.0 mi ESE 8.1 mph - N/A   Scattered Clouds
3:53 PM 82.9 °F 90.2 °F 75.0 °F 77% 30.05 in 10.0 mi ESE 6.9 mph - N/A   Mostly Cloudy
4:53 PM 81.0 °F 85.8 °F 73.0 °F 77% 30.04 in 10.0 mi SE 10.4 mph 17.3 mph N/A   Partly Cloudy
5:53 PM 79.0 °F - 73.9 °F 84% 30.04 in 10.0 mi SE 9.2 mph - N/A   Partly Cloudy
6:53 PM 79.0 °F - 73.9 °F 84% 30.04 in 10.0 mi ESE 6.9 mph - N/A   Clear
7:53 PM 79.0 °F - 71.1 °F 77% 30.06 in 10.0 mi ESE 6.9 mph - N/A   Clear
8:53 PM 78.1 °F - 72.0 °F 81% 30.06 in 10.0 mi SE 8.1 mph - N/A   Partly Cloudy
9:53 PM 78.1 °F - 71.1 °F 79% 30.07 in 10.0 mi ESE 9.2 mph 17.3 mph N/A   Clear
10:53 PM 78.1 °F - 71.1 °F 79% 30.05 in 10.0 mi SE 11.5 mph 18.4 mph N/A   Clear
11:53 PM 78.1 °F - 71.1 °F 79% 30.04 in 10.0 mi SE 10.4 mph 17.3 mph N/A   Partly Cloudy